Starlink 2683

operational
NORAD ID: 48462 Int'l Des: 2021-040 Owner: SPXS Country: US Constellation: starlink
LEOCIRCULARSTARLINK_TYPE

Starlink 2683について

説明を読み込み中...

リアルタイム位置

3D地球を読み込み中...

次回通過

高度履歴

Altitude vs Time

uPlot chart will show altitude changes over time

軌道要素

1 48462U 21040AL 25258.49524196 .00000076 00000-0 24015-4 0 9992
2 48462 53.0535 258.3781 0001497 85.1433 274.9727 15.06397681240084
Epoch: Sep 15, 2025 • Age: 15 hours

現在のステータス

高度 550.0 km
速度 7.59 km/s
衛星直下点 -9.23°S, 41.26°E
打ち上げ日 May 9, 2021
運用期間 4.3 years
タイプ internet

技術仕様

分類 Payload
質量 260.00 kg
乾燥質量 248.00 kg
総質量 260.00 kg
長さ 0.20 m
直径 2.80 m
スパン 9.00 m
形状 Box + pan
製造者 SPXS
バスタイプ Starlink
フェーズステータス In Orbit
所有者/国 SPXS/US

大規模コンステレーション

Loading constellations...